Weather in Gyandja

Azerbaijan     40°40′26″N   46°21′18″E
temp.,
°C
wind,
m/s
gust,
m/s
humid.,
%
clouds,
%
prec.,
mm/h
press.,
hPa
HPBL,
m
28 november, sun
sun2801:00+10w2253100 0.0 101918
04:00+10w235298 0.0 101828
07:00+9w225268 0.0 101820
10:00+11n114919 0.0 101871
13:00+13nne11445 0.0 1017372
16:00+14n114216 0.0 1015319
19:00+12sw115160 0.0 101511
22:00+11w225622 0.0 101611
29 november, mon
mon2901:00+11w22575 0.0 101618
04:00+10wsw22592 0.0 101620
07:00+10w23610 0.0 101730
10:00+13wnw245519 0.0 1018109
13:00+16nw34434 0.0 1017348
16:00+17wnw23430 0.0 1016254
19:00+15sw22500 0.0 101713
22:00+14sw2249100 0.0 101714
30 november, tue
tue3001:00+13wsw1249100 0.0 101713
04:00+12wsw1150100 0.0 101611
07:00+12wsw225097 0.0 101513
10:00+14wnw2246100 0.0 101465
13:00+16nnw224199 0.0 1011229
16:00+16ssw1244100 0.0 100877
19:00+15wsw114387 0.0 100712
22:00+14ssw11460 0.0 100612
1 december, wed
wed101:00+13ese22480 0.0 100516
04:00+11se01550 0.0 100320
07:00+9nw22700 0.0 100416
10:00+11wnw713600 0.0 1007512
13:00+13nw79530 0.0 1006636
16:00+13w45490 0.0 1004366
19:00+11w24554 0.1 100477
22:00+9wnw5763100 0.2 1007227
2 december, thu
thu201:00+6wnw71185100 1.5 1011715
04:00+6ssw1381100 5.8 1012318
07:00+7wsw3771100 0.6 1013538
10:00+8wnw4861100 0.7 1015803
13:00+9nnw5750100 0.0 10171086
16:00+8n3460100 0.0 1019653
19:00+6ne118064 0.0 102289
22:00+4nnw12847 0.0 102577